EHI
0 0 0 0 0 0 1 3 4 4 3 3 3 2 2 1 0 1 1 1 2 1 0 0 0 0 0 0 0 0 0 0 0 0 0 0 0 0 1 0 0 0 0
0 0 0 0 0 1 2 2 3 3 3 3 3 3 2 1 0 0 0 1 1 1 0 0 0 0 0 0 0 0 0 0 0 0 0 0 0 0 1 0 0 1 1
1 0 0 0 1 2 2 1 1 2 2 2 3 3 2 1 0 0 0 0 0 0 0 0 0 0 0 0 0 0 1 0 0 0 0 0 0 0 0 0 2 3 3
2 1 0 0 1 1 1 0 0 1 2 1 1 2 1 0 0 0 0 0 1 1 1 1 0 0 0 0 0 0 0 0 0 0 0 0 0 0 0 0 2 4 4
2 1 0 0 0 0 0 0 0 0 0 0 1 1 1 0 0 0 0 0 1 2 2 1 0 0 0 0 0 0 0 0 0 0 0 0 0 0 0 0 1 2 3
2 2 2 1 0 0 0 0 0 0 0 0 0 0 0 0 0 0 0 0 1 1 1 0 0 0 0 0 0 0 0 0 0 0 0 0 0 0 0 0 1 1 2
1 2 2 2 1 0 0 0 0 0 0 0 0 0 0 0 0 0 0 0 0 0 0 0 0 0 0 0 0 0 0 0 0 0 0 0 0 0 0 0 1 2 2
1 1 2 2 2 1 1 0 0 0 0 0 0 0 0 0 0 0 0 0 0 0 0 0 0 0 0 0 0 0 0 0 0 0 0 0 0 0 1 1 1 1 2
1 1 0 1 1 1 1 0 0 0 0 0 0 0 0 0 0 0 0 0 0 0 0 0 0 0 0 0 0 0 0 0 0 0 0 0 0 1 2 2 1 1 0
1 0 0 0 0 1 1 0 0 0 0 0 0 0 0 0 0 0 0 0 0 0 0 0 0 0 0 0 0 0 0 0 0 0 0 0 0 1 2 3 2 1 0
1 0 0 0 0 0 0 0 0 0 0 0 0 0 0 0 0 0 0 0 0 0 0 0 0 0 0 0 0 0 0 0 0 0 0 0 0 0 1 2 2 1 0
0 0 0 0 0 0 0 0 0 0 0 0 0 0 0 0 0 0 0 0 0 0 0 0 0 0 0 0 0 0 0 0 0 0 0 0 0 0 0 1 1 0 0
0 0 0 0 0 0 0 0 0 0 0 0 0 0 0 0 0 0 0 0 0 0 0 0 0 0 0 0 0 0 0 0 0 0 0 0 0 0 0 0 0 0 0
0 0 0 0 0 0 0 0 0 0 0 0 0 0 0 0 0 0 0 0 0 0 0 0 0 0 0 0 0 0 0 0 0 0 0 0 0 0 0 1 0 0 0
0 0 0 0 0 0 0 0 0 0 0 0 0 0 0 0 0 0 0 0 0 0 0 0 0 0 0 0 0 0 0 0 0 0 0 0 0 0 0 0 0 0 0
0 0 0 0 0 0 0 0 0 0 0 0 0 0 0 0 0 0 0 0 0 0 0 0 0 0 0 0 0 0 0 0 0 0 0 0 0 0 0 0 0 0 0
0 0 0 0 0 0 0 0 0 0 0 0 0 0 0 0 0 0 0 0 0 0 0 0 0 0 0 0 0 0 0 0 0 0 0 0 0 0 0 0 0 0 0
0 0 0 0 0 0 0 0 0 0 0 0 0 0 0 0 0 0 0 0 0 0 0 0 0 0 0 0 0 0 0 0 0 0 0 0 0 0 0 0 0 0 0
0 0 0 0 0 0 0 0 0 0 0 0 0 0 0 0 0 0 0 0 0 0 0 0 0 0 0 0 0 0 0 0 0 0 0 0 0 0 0 0 0 0 0
0 0 0 0 0 0 0 0 0 0 0 0 0 0 0 0 0 0 0 0 0 0 0 0 0 0 0 0 0 0 0 0 0 0 0 0 0 0 0 0 0 0 0
0 0 0 0 0 0 0 1 1 0 0 0 0 0 0 0 0 0 0 0 0 0 0 0 0 0 0 0 0 0 0 0 0 0 0 0 0 0 0 0 0 0 0
0 0 0 0 0 0 1 2 2 1 0 0 0 0 0 0 0 0 0 0 0 0 0 0 0 0 0 0 0 0 0 0 0 0 0 0 0 0 0 0 0 0 0
1 1 0 0 0 0 1 2 2 1 0 0 0 0 0 0 0 0 0 0 0 0 0 0 0 0 0 0 0 0 0 0 0 0 0 0 0 0 0 0 0 0 0
2 2 1 0 0 0 0 1 2 2 1 0 0 0 0 0 0 0 0 0 0 0 0 0 0 0 0 0 0 0 0 0 0 0 0 0 0 0 0 0 0 0 0
3 3 2 1 0 0 0 1 2 3 2 1 0 0 0 0 0 0 0 0 0 0 0 0 0 0 0 0 0 0 0 0 0 0 0 0 0 0 0 0 0 0 0
3 3 2 1 0 0 0 0 1 3 2 1 0 0 0 0 0 0 0 0 0 0 0 0 0 0 0 0 0 0 0 0 0 0 0 0 0 0 0 0 0 0 0
Wind_Speed
0 1 5 7 9 9 10 10 10 10 9 9 9 10 10 10 10 10 10 9 9 9 10 10 10 10 10 11 11 10 10 10 10 10 10 10 9 9 9 9 8 5 8
2 1 6 8 9 9 9 10 10 10 10 10 10 10 10 10 10 10 10 10 9 9 9 10 10 10 10 11 11 10 10 11 10 10 10 9 10 10 10 10 9 6 10
4 3 4 8 8 9 9 9 10 10 9 9 10 10 10 10 10 10 10 9 9 9 10 11 11 11 10 10 10 11 11 11 11 10 9 5 6 10 10 11 11 11 12
5 3 4 7 8 9 9 9 10 10 9 9 10 10 10 10 10 10 10 11 11 11 11 11 11 11 10 10 10 11 11 11 11 10 5 4 4 10 11 11 12 12 13
5 3 4 8 9 9 9 9 10 10 10 10 10 10 10 10 10 10 11 12 12 12 12 11 11 11 11 11 11 11 12 12 12 9 5 4 4 10 11 12 12 12 12
5 3 4 8 9 9 9 9 10 10 10 10 10 10 10 10 10 10 11 12 12 12 12 11 11 11 11 11 11 11 12 12 10 6 5 4 4 9 11 11 12 12 12
4 3 4 8 9 9 9 9 10 10 10 10 10 10 10 10 10 11 11 11 12 12 12 11 11 11 11 11 12 12 12 12 7 5 5 4 5 10 11 11 11 12 12
5 4 4 7 8 9 9 9 9 10 10 10 10 10 10 10 11 11 11 11 11 12 11 11 11 11 12 12 12 12 12 10 7 6 4 3 8 11 11 11 11 11 12
5 4 3 3 5 8 8 9 9 9 9 10 10 10 10 10 11 10 11 11 11 11 11 11 11 11 12 12 12 13 13 12 6 3 5 4 9 11 11 11 11 11 11
5 4 3 2 3 3 4 7 8 8 8 9 9 9 10 10 10 10 9 9 10 10 10 10 10 11 12 12 12 12 12 10 5 4 3 5 10 11 11 11 11 11 11
5 3 3 2 2 2 2 4 5 6 6 6 6 8 7 4 4 5 6 8 8 9 9 9 10 11 11 11 12 12 9 4 4 4 3 8 10 11 11 11 11 11 11
4 4 3 3 2 2 3 2 2 2 2 2 2 3 2 2 2 4 5 6 7 7 8 9 9 10 8 5 8 9 4 5 4 3 4 10 10 10 10 11 11 11 11
5 5 4 3 3 2 2 2 1 1 1 1 2 2 2 2 2 3 2 3 4 5 4 6 6 4 4 4 4 4 4 4 3 3 5 10 10 10 10 10 10 10 10
4 5 4 4 3 3 2 2 1 1 1 1 2 3 3 2 2 2 2 2 2 2 3 3 3 4 5 5 5 5 5 4 3 3 4 10 9 9 9 9 9 9 9
5 4 4 4 4 3 3 2 2 2 2 2 2 2 3 3 2 2 1 2 2 2 3 3 4 4 4 4 5 6 5 5 5 4 4 9 9 9 9 9 10 10 10
5 4 4 4 4 4 3 2 2 2 2 2 2 2 3 3 3 3 2 2 2 3 3 3 4 4 4 4 5 5 5 4 4 5 4 5 9 10 10 10 10 10 10
5 4 4 4 4 4 3 3 2 2 2 2 2 3 3 4 4 4 3 3 2 3 4 3 4 4 4 4 4 4 4 4 4 5 4 4 4 8 10 10 10 9 9
5 5 4 5 5 4 3 3 2 2 3 2 2 3 4 4 4 4 3 2 2 3 3 3 3 4 4 4 3 3 3 3 4 4 4 4 4 4 7 11 10 10 9
6 6 5 4 5 5 4 3 3 3 3 2 2 3 3 4 4 4 3 2 3 3 3 3 3 3 3 3 3 3 3 3 3 4 4 4 4 4 4 7 10 10 10
5 5 5 4 4 4 3 3 3 3 2 2 2 3 3 3 4 4 3 3 3 3 3 3 3 3 2 2 4 4 3 3 3 3 3 3 3 4 4 5 4 6 9
4 5 5 5 4 4 3 3 2 1 1 1 2 3 3 3 4 4 3 3 3 3 3 3 3 3 2 2 3 3 3 4 4 3 3 3 3 3 4 4 3 3 4
5 5 5 5 5 4 4 3 3 3 2 1 1 2 2 3 4 4 4 3 3 3 3 3 3 2 1 1 2 2 2 3 4 3 3 2 3 3 3 3 3 4 3
5 6 6 5 5 4 4 3 3 2 2 2 1 1 1 2 3 4 4 4 3 3 3 2 3 3 2 0 1 3 3 1 1 3 3 2 2 2 2 2 3 3 3
7 6 6 5 4 4 5 5 5 4 3 3 2 1 1 2 3 3 4 4 3 3 3 2 2 2 3 1 0 0 2 3 3 0 2 2 2 2 2 2 2 3 3
6 6 6 5 4 4 5 6 6 4 3 2 2 2 1 1 2 3 3 4 3 3 3 2 2 2 2 2 1 1 1 2 2 3 0 2 2 2 1 1 1 2 2
5 5 5 6 4 4 5 5 6 6 4 4 3 2 2 1 1 2 3 3 3 3 3 3 2 2 2 2 2 1 2 2 1 2 2 1 1 2 1 1 1 1 1
Wind_Direction
332 345 79 80 80 82 83 84 87 87 87 86 88 88 84 81 79 76 76 81 82 80 78 80 79 78 75 74 73 73 75 77 78 77 76 76 78 80 82 79 77 70 76
147 104 89 84 85 86 87 86 85 85 86 86 88 90 87 82 80 79 77 82 84 83 82 80 80 79 76 74 72 71 71 72 76 76 73 74 78 79 79 82 80 77 77
120 106 94 89 89 88 88 87 85 85 83 84 88 90 87 84 81 78 77 78 86 93 89 82 78 77 76 75 72 70 70 73 75 75 71 63 72 79 81 82 84 83 81
113 103 99 94 92 89 88 86 85 83 83 85 88 88 87 85 82 78 76 75 86 95 91 84 80 77 76 75 72 71 71 74 73 73 63 54 66 81 83 83 83 83 82
102 90 102 98 95 91 91 89 85 83 83 86 90 90 90 87 83 81 80 78 83 88 87 84 80 78 77 75 72 71 72 75 72 65 58 55 61 83 83 83 83 84 83
106 95 102 102 100 94 90 90 87 84 83 86 90 90 88 86 86 85 84 83 84 85 85 84 82 79 77 74 71 72 74 74 66 57 56 56 67 86 86 86 86 85 83
113 101 104 104 103 99 94 93 92 88 87 87 88 88 87 88 89 88 87 87 86 84 83 82 80 78 75 72 71 73 77 75 66 60 57 58 79 88 87 86 87 88 85
121 107 103 108 107 101 97 96 96 93 90 90 89 89 91 92 90 89 88 88 86 85 84 82 79 75 73 69 68 70 75 72 70 69 59 65 88 89 87 85 86 88 88
120 111 91 99 106 106 104 100 100 99 95 93 91 91 93 93 90 90 89 88 89 85 82 81 79 76 73 71 69 69 69 64 56 55 67 67 88 89 87 85 84 85 86
122 121 111 94 89 95 104 105 104 103 98 94 90 88 86 86 85 87 87 87 88 84 80 78 79 75 72 71 69 67 64 56 48 44 46 75 85 87 86 84 84 86 86
132 139 134 123 108 108 117 115 107 107 103 96 91 94 86 69 67 78 85 86 83 80 77 76 76 73 72 68 68 65 59 45 44 45 51 77 82 85 86 86 85 87 87
154 162 153 147 147 144 131 102 77 78 73 74 78 88 84 78 67 73 78 81 75 70 66 69 70 69 68 61 61 59 51 42 40 41 62 73 79 85 87 87 86 86 87
159 157 160 161 161 152 128 121 91 72 69 70 95 106 93 73 57 51 49 48 44 51 47 55 57 61 66 64 64 58 51 49 40 36 56 72 78 80 82 85 87 88 89
140 147 156 158 151 149 135 133 123 107 97 98 111 117 111 98 81 70 53 41 40 43 56 57 64 67 70 67 70 68 59 54 47 32 49 65 70 74 80 85 86 86 88
143 146 148 139 139 137 124 129 112 115 127 128 113 114 118 114 109 97 75 66 61 63 72 75 75 71 67 64 72 74 67 58 54 44 35 58 64 66 74 82 86 84 84
155 154 145 131 135 126 120 118 119 117 114 104 102 115 119 118 117 105 89 74 66 70 77 82 81 78 72 70 69 69 69 62 56 54 38 41 57 64 66 73 81 83 85
163 155 152 145 129 126 122 119 110 106 100 95 93 103 118 118 113 105 96 83 73 77 82 80 72 69 71 68 61 61 66 62 62 56 44 37 39 54 59 63 71 76 80
161 154 164 147 133 130 128 119 106 96 93 91 85 89 103 110 110 103 98 89 80 81 84 85 78 75 67 66 60 52 51 56 63 61 53 48 42 43 50 57 62 68 71
169 163 163 148 146 145 135 121 104 92 90 99 93 90 100 104 108 107 105 101 91 84 85 95 83 92 86 77 73 59 46 49 52 60 55 51 48 46 42 50 54 58 62
166 160 157 149 146 139 124 102 83 68 70 84 93 95 99 103 109 108 105 99 93 88 79 86 91 77 88 91 80 60 38 36 43 47 50 51 48 49 46 44 37 42 53
161 152 156 154 155 143 131 127 124 127 116 91 105 112 113 113 114 110 106 99 95 100 106 104 99 87 70 88 82 50 22 24 36 29 36 50 47 45 50 45 38 32 34
170 164 162 166 163 158 157 158 159 153 142 134 112 103 118 119 122 120 116 115 112 106 98 97 104 99 87 85 106 96 37 7 2 12 20 44 45 46 51 51 44 41 32
172 174 173 173 164 164 155 133 108 80 65 60 74 100 122 126 128 130 131 128 124 123 129 131 129 123 144 288 118 134 139 183 330 349 3 21 32 47 38 39 46 39 39
182 176 169 169 164 163 155 149 150 150 157 188 184 176 158 149 144 143 146 142 141 138 143 157 146 139 138 163 319 92 140 148 142 32 339 352 14 39 36 49 46 39 40
177 171 169 166 164 163 162 160 156 153 169 171 160 154 155 167 163 156 155 152 153 154 160 159 144 146 147 155 161 137 86 75 102 131 198 323 351 358 14 30 46 39 37
166 163 160 160 171 170 164 163 160 162 164 157 159 167 179 189 198 185 167 164 167 165 169 171 169 167 169 155 149 143 144 144 159 138 151 205 298 315 344 4 22 26 35